Temperature
13 14 14 15 18 20 21 20 19 19 19 17 17 18 19 20 20 19 13 13 14 14 15 15 16 16 16 16 16 17 17 17 17 17 17 17 17 17 17 17 17 17 17 17 17 17 17 16 16
13 13 14 16 19 21 21 19 18 18 17 16 16 17 18 17 15 14 13 13 14 14 14 15 15 16 16 16 16 16 17 17 17 17 17 17 17 17 17 17 17 17 17 17 16 16 16 16 16
13 13 15 18 19 21 20 18 17 16 15 16 16 16 17 16 14 13 12 13 13 14 14 15 15 16 16 16 16 16 16 16 17 17 17 17 17 17 17 17 17 17 17 16 16 16 16 16 16
12 14 15 18 19 18 18 17 16 16 15 15 15 16 15 13 12 12 12 13 13 13 14 14 15 15 16 16 16 16 16 16 16 16 16 16 16 17 17 17 17 17 16 16 16 16 16 16 16
12 15 17 18 18 17 16 15 14 16 16 15 15 16 15 12 12 12 12 12 13 13 13 14 14 15 15 15 16 16 16 16 16 16 16 16 16 16 16 16 16 16 16 16 16 16 16 16 16
14 16 18 18 17 16 15 13 14 15 15 14 14 15 14 12 11 11 12 12 12 12 13 13 14 14 15 15 15 15 16 16 16 16 16 16 16 16 16 16 16 16 16 16 16 16 16 15 15
14 16 17 17 16 15 14 12 14 14 15 14 13 14 14 12 11 11 11 11 12 12 12 13 13 14 14 14 15 15 15 15 15 16 16 16 16 16 16 16 16 16 15 15 15 15 15 15 15
12 15 15 16 15 15 13 12 12 12 13 12 12 14 14 11 10 10 11 11 11 12 12 12 12 13 13 14 14 14 14 15 15 15 15 15 15 15 15 15 15 15 15 15 15 15 15 15 15
11 14 15 15 14 14 12 12 12 10 11 11 11 11 10 10 10 10 10 10 11 11 11 11 12 12 12 13 13 14 14 14 14 14 14 15 15 15 15 15 15 15 15 15 15 15 15 14 14
12 14 14 13 13 12 11 11 11 11 12 12 11 10 9 9 9 9 9 10 10 10 10 10 11 11 12 12 12 13 13 13 14 14 14 14 14 14 14 15 15 15 15 15 14 14 14 14 14
12 13 12 11 10 10 11 10 10 11 12 12 11 10 9 8 8 9 9 9 9 9 10 10 10 11 11 11 12 12 12 13 13 13 13 14 14 14 14 14 14 14 14 14 14 14 14 14 13
11 10 10 10 8 9 10 10 10 10 11 10 9 8 8 8 8 8 8 8 8 8 9 9 9 10 10 10 11 11 11 12 12 13 13 13 13 13 14 14 14 14 14 14 14 14 13 13 13
10 10 9 8 8 8 8 9 9 10 9 9 8 8 8 8 8 8 7 7 7 8 8 8 9 9 9 9 10 10 10 11 11 12 12 12 13 13 13 13 13 13 13 13 13 13 13 13 13
9 9 9 8 8 8 9 10 9 10 9 8 8 8 8 8 7 7 7 7 7 7 7 7 8 8 8 9 9 9 9 10 10 10 11 11 12 12 12 12 13 13 13 13 13 13 13 13 13
8 9 10 9 9 9 8 10 11 10 9 9 9 9 8 7 7 7 7 6 6 6 7 7 7 7 8 8 8 8 9 9 9 10 10 11 11 11 11 12 12 12 12 12 12 12 12 12 12
9 10 11 10 9 8 9 12 12 10 9 9 9 9 8 7 7 7 6 6 6 6 6 6 7 7 7 7 7 8 8 8 9 9 9 10 10 10 10 10 11 11 11 11 11 12 12 12 12
11 11 11 11 9 9 9 11 12 10 9 9 9 9 8 8 7 7 6 6 6 6 6 6 6 6 6 7 7 7 7 8 8 8 9 9 9 9 9 10 10 10 10 10 10 11 11 11 11
11 11 10 11 10 8 9 10 11 10 9 9 9 9 8 8 7 6 6 6 6 6 6 5 5 6 6 6 6 6 7 7 7 7 8 8 9 9 9 9 9 9 10 10 10 10 10 10 10
8 9 9 10 9 8 9 10 11 10 10 9 9 9 8 7 7 6 6 6 6 6 5 5 5 5 5 5 6 6 6 7 7 7 7 8 8 8 8 8 9 9 9 9 9 9 9 10 10
8 8 9 10 8 8 8 9 10 10 9 9 9 8 8 7 7 6 6 6 5 5 5 5 5 5 5 5 5 5 6 6 6 6 7 7 7 8 8 8 8 8 8 8 9 9 9 9 9
8 8 9 8 8 8 7 10 11 10 9 8 8 8 7 7 7 6 6 5 5 5 5 5 5 5 5 5 5 5 5 5 5 6 6 7 7 7 8 8 8 8 8 8 8 9 8 8 8
8 8 7 7 7 9 7 10 12 10 10 9 9 8 8 7 6 6 5 5 5 5 5 5 5 4 4 4 4 5 5 5 5 6 6 7 7 7 7 7 7 8 8 8 8 8 8 8 8
8 6 6 6 6 6 7 6 11 10 9 10 10 8 7 6 6 6 5 5 5 5 4 4 4 4 4 4 4 4 4 5 5 5 5 6 6 6 7 7 7 7 7 8 8 8 8 8 8
6 6 6 5 6 6 7 7 11 11 10 10 9 8 7 6 6 5 5 5 5 5 4 4 4 4 4 4 4 4 4 4 4 5 5 5 6 6 6 6 7 7 7 7 7 7 8 8 8
6 7 8 8 8 9 7 6 9 11 9 9 8 7 7 6 5 5 5 5 4 4 4 4 4 4 4 4 4 4 4 4 4 4 5 5 5 5 6 6 6 7 7 7 7 7 7 7 8
6 7 8 9 10 10 7 7 10 9 8 7 7 6 6 6 5 5 5 4 4 4 4 3 3 3 3 3 3 3 3 4 4 4 4 5 5 5 6 6 6 6 7 7 7 7 7 7 7
6 6 6 6 5 5 9 8 9 9 8 8 7 6 6 6 5 5 5 4 4 4 3 3 3 3 3 3 3 3 3 3 3 4 4 4 5 5 5 5 6 6 6 7 7 6 7 7 7
5 5 5 6 6 8 9 9 10 9 9 9 8 7 6 5 5 5 4 4 4 3 3 3 3 3 3 3 3 3 3 3 3 3 4 4 4 4 5 5 5 6 6 6 6 6 6 6 7
4 4 5 6 5 7 8 10 10 8 9 8 8 7 6 5 5 4 4 4 3 3 3 3 3 3 3 3 2 2 2 2 3 3 3 4 4 4 4 5 5 5 6 6 6 6 6 6 6
4 5 5 5 5 4 6 9 9 8 8 7 7 6 6 5 4 4 4 3 3 3 3 2 2 2 2 2 2 2 2 2 2 3 3 3 3 4 4 4 4 5 5 5 6 6 6 6 6
Wind_Speed
5 3 2 3 4 5 7 4 3 4 2 1 2 2 2 2 2 2 4 10 12 11 13 13 15 15 13 9 7 4 2 1 3 6 8 10 11 13 14 15 15 15 15 15 14 14 14 14 13
3 2 3 4 5 7 6 5 6 3 1 2 1 1 1 0 2 3 5 11 12 11 12 13 16 15 13 11 8 6 4 3 2 4 6 8 10 11 13 14 15 15 15 15 15 14 14 14 14
1 1 4 4 6 6 3 4 3 1 2 2 1 1 1 1 2 3 8 11 11 11 12 13 16 16 14 12 10 7 6 4 3 3 5 7 9 11 11 12 14 15 15 15 15 15 14 14 14
2 3 3 5 8 3 1 4 1 1 1 2 2 1 0 2 2 5 10 11 11 11 12 12 15 16 15 12 12 9 7 5 4 3 4 5 7 9 11 12 12 13 14 15 15 15 15 14 14
2 4 5 6 6 3 2 0 1 2 1 2 3 3 2 1 3 8 10 11 12 11 12 12 14 15 15 13 11 10 8 6 5 4 4 5 6 8 9 11 12 12 13 14 15 15 15 15 15
4 4 6 8 7 4 3 1 2 3 3 3 4 5 2 1 5 10 11 11 11 11 11 11 11 13 13 13 11 10 9 7 6 5 4 5 6 7 8 10 12 13 13 14 14 15 15 16 16
4 4 4 4 5 5 3 0 2 3 4 3 4 5 3 1 8 11 11 11 11 10 10 9 10 10 11 11 11 10 9 8 6 6 5 5 6 7 8 9 10 12 13 13 14 15 16 16 16
0 3 3 4 5 4 2 1 2 5 4 3 3 4 4 6 10 11 11 10 10 9 9 9 9 10 10 9 9 9 8 8 6 5 5 5 5 7 9 9 9 9 12 14 14 15 16 16 16
1 4 5 4 4 3 1 2 2 3 5 5 5 6 7 9 11 11 11 10 10 9 9 9 9 9 9 9 8 9 7 6 6 4 4 4 5 6 8 9 9 10 10 11 14 15 16 16 16
2 4 3 1 1 1 2 5 5 4 7 7 7 7 8 9 10 10 11 12 12 11 11 9 9 9 9 8 7 7 6 5 6 5 5 5 5 5 6 7 8 10 10 11 12 14 15 15 13
1 2 2 2 1 3 4 5 4 6 8 7 8 8 8 9 10 10 11 11 12 11 11 10 9 9 8 6 6 5 5 5 6 5 5 5 5 5 5 4 6 8 10 9 9 10 12 12 11
1 1 2 2 1 4 6 5 6 9 10 7 7 8 9 10 10 10 11 11 11 11 11 10 9 8 8 7 5 5 4 4 5 5 5 4 3 4 4 4 5 5 6 7 7 7 9 11 12
2 1 2 4 5 7 8 10 10 13 12 9 8 9 10 10 11 10 10 10 11 11 10 10 10 9 8 7 6 5 5 5 6 6 6 5 4 5 5 5 5 6 6 7 7 8 9 9 11
1 3 5 5 5 4 7 11 8 11 7 6 7 8 9 10 10 10 9 10 11 11 10 10 10 9 9 7 6 6 6 6 7 6 7 6 5 5 5 6 6 6 6 7 8 9 9 8 8
1 3 4 3 3 2 6 10 9 8 5 8 9 9 9 9 9 9 9 10 11 10 10 10 10 10 9 9 8 7 6 7 7 7 8 8 7 7 7 6 7 7 7 8 7 8 7 8 8
2 2 3 2 2 2 5 9 4 3 6 10 10 10 10 9 9 9 9 10 10 10 10 10 9 10 10 9 8 7 7 7 7 8 8 8 8 8 7 7 7 7 7 7 7 7 7 8 9
1 3 4 2 2 3 5 12 9 7 9 12 11 10 10 9 8 8 8 9 9 9 9 10 10 10 11 10 8 8 8 7 7 8 8 8 9 9 8 8 7 8 7 7 8 8 8 8 9
2 4 5 6 2 6 12 17 17 13 12 13 11 10 9 8 8 8 8 9 9 9 9 10 11 11 11 9 8 7 8 7 7 8 9 10 9 9 9 8 9 9 7 8 9 10 9 8 8
3 5 9 7 5 8 14 19 19 14 11 11 10 9 8 8 8 8 8 9 9 10 10 10 11 11 9 8 8 7 7 8 8 9 10 11 10 10 9 8 9 9 9 10 11 9 10 8 7
5 7 8 8 4 7 14 20 16 10 9 8 8 8 7 8 8 8 9 9 10 11 11 11 11 11 11 9 8 8 9 8 9 9 10 11 11 11 10 10 9 9 9 11 11 9 8 7 8
7 8 8 9 11 6 10 11 6 4 5 7 7 7 7 7 8 9 9 9 10 11 12 11 12 13 12 11 8 7 7 7 8 9 10 10 11 11 11 12 10 11 11 10 11 12 11 10 9
5 4 7 9 8 5 4 7 6 4 6 6 6 6 6 7 8 9 10 11 11 12 12 12 12 13 12 10 9 9 9 9 11 10 10 10 11 11 11 12 11 11 11 11 12 12 11 12 10
4 3 6 7 6 6 5 6 8 3 6 6 5 5 5 6 8 9 10 11 12 11 11 11 12 12 12 10 9 10 11 11 10 10 11 11 10 12 12 12 11 12 11 12 13 13 13 12 11
2 2 2 2 3 5 5 6 7 4 5 4 4 5 6 7 8 10 11 11 12 11 10 11 12 13 13 12 10 11 13 13 12 12 11 10 9 11 12 12 12 13 11 12 13 13 15 14 14
2 2 3 3 4 5 3 6 10 6 5 5 6 7 7 8 9 10 11 12 13 13 13 12 13 14 14 13 11 11 13 13 13 12 11 11 10 10 12 12 12 13 13 12 13 14 15 15 16
3 2 2 4 6 5 4 8 7 5 6 7 8 9 9 9 10 11 12 12 13 14 14 13 14 14 14 13 12 12 13 11 10 12 11 12 11 11 12 13 13 14 14 13 13 13 14 14 15
4 4 0 2 4 7 8 8 9 8 9 8 8 9 9 10 11 12 13 13 14 14 14 14 14 14 14 13 13 13 13 12 12 13 12 11 11 11 13 13 14 14 14 14 14 13 15 14 14
2 4 4 3 4 7 8 8 6 5 7 7 7 9 10 11 12 13 14 14 14 13 14 14 14 14 14 14 13 11 12 12 13 12 13 13 13 13 13 13 13 14 13 14 14 13 14 15 14
7 6 6 4 4 5 8 7 3 6 6 7 8 10 11 13 14 14 14 14 14 14 14 14 14 14 13 13 13 12 12 12 12 12 13 13 13 13 13 13 13 13 13 13 13 14 15 16 15
8 8 9 6 7 6 8 11 3 6 7 9 11 13 14 15 14 15 16 15 15 15 15 15 14 14 13 13 12 12 12 12 12 12 13 13 13 12 12 12 12 12 13 13 15 14 15 16 16
Wind_Direction
321 296 226 204 204 222 226 196 183 158 150 22 334 286 271 290 299 91 45 4 354 353 356 3 3 3 3 6 12 2 345 272 203 194 192 188 185 187 188 185 185 183 182 179 175 170 167 164 162
311 242 197 204 224 224 212 187 186 160 25 348 339 265 237 104 38 44 11 354 350 354 357 4 5 2 4 4 6 5 358 339 267 212 198 195 191 188 189 191 190 188 186 183 180 175 169 167 166
240 254 201 203 222 237 189 153 152 107 13 332 345 346 315 70 50 18 360 346 347 354 357 4 4 2 0 3 360 2 354 343 323 257 213 202 199 194 191 192 195 194 190 186 183 178 174 172 170
202 175 198 224 222 226 190 134 113 178 103 15 321 276 153 41 17 3 351 347 347 351 354 360 1 358 358 359 1 356 356 344 326 307 249 218 211 207 200 194 192 194 194 191 186 181 178 177 175
200 195 202 219 219 193 173 140 289 263 288 345 316 284 265 113 18 356 349 347 345 345 349 352 358 356 356 354 354 354 350 349 333 312 293 246 224 214 211 204 196 192 194 193 190 186 184 181 179
175 204 217 223 207 190 184 273 262 270 278 298 302 283 265 153 359 349 343 340 340 339 342 345 351 351 350 352 346 346 342 339 341 326 306 278 240 220 219 215 205 198 195 195 193 192 189 186 184
201 205 229 225 204 203 181 293 268 288 280 300 312 282 245 262 343 334 331 333 335 338 338 341 340 341 343 343 344 337 338 330 325 326 315 297 268 236 224 218 212 206 201 198 198 196 193 190 188
265 199 203 211 215 204 149 261 296 297 291 319 294 274 275 324 330 326 324 328 332 335 336 334 335 335 333 333 336 332 330 324 313 314 315 302 281 253 232 221 215 208 206 203 201 199 197 193 189
235 214 216 207 215 190 179 266 287 291 274 270 264 282 306 317 319 320 321 325 329 331 333 330 329 329 329 326 328 324 316 315 300 291 299 287 267 255 240 231 224 214 208 207 206 202 200 193 189
216 219 207 143 207 230 265 283 296 271 266 265 266 281 301 309 313 315 319 322 324 325 326 326 323 322 323 323 324 319 310 311 296 286 284 277 270 257 255 238 224 217 213 207 207 206 200 195 193
189 217 166 181 232 279 278 282 278 268 265 266 279 291 303 305 308 309 311 314 317 318 320 318 319 317 316 317 316 318 314 308 298 280 277 279 275 259 249 242 222 218 213 208 203 201 204 202 196
169 178 227 227 267 277 275 277 268 253 259 287 289 290 292 297 300 303 307 312 314 313 317 315 314 314 313 311 306 303 305 302 300 283 272 275 272 261 248 240 239 228 220 215 207 207 209 209 203
204 217 256 263 271 272 267 261 270 263 263 275 279 282 288 294 297 299 302 307 311 311 312 314 311 311 311 306 302 297 295 293 291 282 263 259 259 257 252 241 235 232 227 219 214 211 210 212 207
231 270 275 270 258 255 270 271 259 259 261 263 271 278 289 292 295 299 304 307 309 308 309 310 312 308 306 301 299 293 289 288 287 279 263 252 254 253 254 245 237 235 231 224 219 219 212 211 211
248 274 255 226 247 265 293 273 232 247 259 271 277 283 289 290 291 295 301 303 306 306 307 310 309 310 305 300 295 291 285 283 283 277 264 252 248 251 251 246 239 234 233 229 223 221 217 212 212
215 246 252 179 252 255 285 276 245 231 268 278 285 288 289 289 290 296 300 302 305 305 305 306 305 307 301 295 289 286 283 279 277 279 267 255 246 245 249 245 241 235 233 227 223 218 219 214 211
201 277 284 273 217 269 268 273 274 276 278 281 286 287 288 290 293 299 301 302 305 303 303 303 301 300 299 293 282 278 277 272 273 275 269 260 248 244 245 243 241 233 229 227 223 218 218 219 213
272 281 282 283 288 281 273 273 282 285 278 278 281 283 285 287 294 302 304 306 305 303 299 298 297 297 298 293 283 277 274 271 272 272 266 264 253 246 245 241 239 233 226 226 222 221 217 221 215
262 264 281 286 303 293 278 283 288 288 275 272 275 277 283 290 298 303 304 305 306 305 299 298 297 297 296 290 284 279 278 277 273 270 268 264 256 247 243 240 237 232 227 225 222 222 216 215 206
252 268 281 290 295 295 291 288 285 275 262 266 273 275 282 296 301 305 307 308 307 304 301 296 296 296 292 285 280 274 275 273 272 273 268 265 255 247 242 237 235 233 230 226 222 218 217 217 205
251 255 281 296 311 278 299 285 252 243 253 263 265 272 282 293 301 308 308 307 307 303 301 298 295 295 290 284 280 279 278 277 277 275 268 262 257 250 244 239 234 233 228 224 220 214 215 213 213
268 255 274 290 301 295 324 296 270 255 269 263 267 276 286 297 305 309 309 309 307 305 305 302 297 292 290 282 276 276 278 277 278 277 267 264 256 250 244 239 235 234 231 223 221 216 216 213 213
267 304 280 278 269 281 241 257 272 248 260 261 266 282 295 303 309 310 309 308 306 305 305 303 301 299 300 291 283 280 276 274 274 274 271 268 260 251 243 239 234 233 232 224 220 218 214 215 215
248 265 233 216 236 258 228 237 273 232 238 257 266 283 299 305 308 309 310 312 311 310 307 305 304 304 304 297 287 279 279 273 273 273 273 270 265 255 244 238 238 233 231 226 220 220 217 216 217
217 270 278 258 240 252 173 242 257 258 249 263 275 285 298 305 307 311 315 317 317 316 313 310 308 307 306 299 294 285 278 272 267 269 271 272 269 262 247 240 238 236 231 227 223 222 220 218 216
199 226 260 283 283 290 241 246 259 275 270 269 275 284 297 302 306 309 311 313 314 314 313 311 309 307 306 302 298 290 283 277 271 269 268 265 263 262 256 244 240 238 233 229 225 223 222 220 218
181 200 257 260 284 277 259 263 280 263 258 264 275 286 295 300 304 308 310 311 311 310 310 310 308 305 302 301 297 291 286 281 276 274 268 265 263 262 256 250 245 239 232 230 226 224 220 219 219
251 162 170 212 270 276 273 263 259 249 256 269 280 293 297 301 304 308 309 309 308 307 307 309 307 304 301 300 295 291 289 285 281 274 272 270 268 262 258 255 250 241 233 232 225 224 220 218 220
175 185 205 218 249 266 282 274 231 247 271 284 292 300 304 304 304 305 306 307 308 307 308 308 307 305 304 302 298 294 293 289 285 277 273 272 269 262 258 255 252 242 236 230 222 222 218 218 219
216 210 196 218 231 232 267 275 250 259 283 292 299 305 306 308 305 303 304 308 309 307 307 306 307 305 304 302 298 297 296 293 289 282 279 277 273 264 256 255 252 245 239 230 221 221 220 218 217
Height
1501 1502 1504 1508 1506 1500 1493 1494 1496 1499 1501 1504 1505 1504 1501 1501 1501 1508 1510 1506 1505 1503 1502 1501 1500 1500 1500 1500 1500 1501 1502 1503 1503 1504 1505 1506 1506 1507 1508 1509 1510 1510 1511 1512 1512 1512 1512 1513 1513
1501 1503 1507 1507 1500 1494 1492 1495 1498 1501 1505 1506 1505 1505 1503 1504 1507 1508 1507 1505 1504 1503 1502 1501 1500 1500 1499 1499 1500 1500 1501 1501 1502 1503 1504 1504 1505 1506 1507 1508 1508 1509 1510 1510 1511 1511 1512 1512 1512
1502 1503 1507 1502 1496 1488 1490 1498 1501 1505 1506 1506 1505 1505 1505 1506 1507 1508 1506 1504 1504 1503 1501 1500 1499 1499 1498 1498 1498 1499 1499 1500 1501 1502 1502 1503 1504 1505 1505 1506 1507 1508 1508 1509 1510 1510 1511 1511 1512
1503 1506 1506 1500 1494 1495 1497 1501 1505 1505 1506 1507 1506 1505 1506 1507 1507 1506 1504 1503 1503 1502 1500 1499 1498 1498 1497 1497 1497 1497 1497 1498 1499 1500 1500 1501 1502 1503 1503 1504 1505 1506 1507 1508 1508 1509 1510 1510 1511
1503 1504 1500 1496 1495 1498 1502 1505 1506 1505 1505 1507 1507 1504 1505 1506 1505 1504 1503 1502 1501 1500 1499 1497 1496 1496 1495 1495 1495 1495 1495 1496 1496 1497 1498 1499 1500 1500 1501 1502 1503 1503 1504 1506 1507 1507 1508 1509 1509
1504 1501 1495 1491 1493 1500 1504 1507 1507 1505 1506 1507 1507 1505 1504 1505 1504 1502 1501 1500 1499 1498 1496 1495 1494 1493 1493 1492 1492 1492 1492 1493 1493 1494 1495 1496 1497 1497 1498 1499 1500 1501 1502 1503 1504 1505 1506 1507 1508
1503 1499 1492 1492 1495 1500 1504 1507 1507 1506 1505 1506 1507 1504 1503 1504 1502 1500 1499 1498 1497 1495 1494 1493 1492 1491 1490 1490 1489 1489 1489 1490 1490 1490 1491 1492 1493 1494 1495 1496 1497 1498 1499 1500 1501 1503 1504 1505 1506
1502 1501 1497 1496 1497 1499 1506 1507 1508 1507 1505 1507 1506 1504 1502 1503 1500 1498 1497 1496 1494 1493 1491 1490 1489 1488 1487 1486 1486 1486 1486 1486 1487 1487 1487 1488 1489 1490 1491 1493 1494 1494 1496 1497 1498 1500 1501 1502 1503
1503 1502 1495 1496 1498 1501 1507 1507 1507 1507 1506 1505 1504 1504 1503 1500 1498 1496 1495 1493 1491 1490 1488 1487 1485 1484 1483 1483 1482 1482 1482 1482 1483 1483 1484 1484 1485 1486 1487 1488 1490 1491 1492 1493 1495 1496 1498 1499 1501
1503 1497 1497 1502 1504 1504 1506 1507 1507 1505 1503 1502 1502 1501 1500 1498 1496 1494 1492 1490 1488 1486 1485 1483 1482 1481 1480 1479 1478 1478 1477 1478 1478 1479 1479 1480 1481 1482 1483 1484 1485 1487 1488 1490 1491 1493 1494 1496 1497
1503 1500 1503 1505 1506 1507 1506 1506 1505 1504 1499 1499 1499 1498 1497 1496 1494 1492 1490 1488 1485 1483 1481 1480 1478 1477 1476 1475 1474 1473 1472 1472 1473 1474 1475 1475 1476 1477 1478 1479 1480 1482 1484 1485 1487 1488 1490 1491 1493
1504 1505 1506 1506 1507 1507 1506 1505 1503 1501 1498 1498 1497 1496 1495 1493 1491 1489 1487 1485 1482 1479 1477 1476 1475 1473 1472 1471 1470 1469 1467 1467 1468 1469 1469 1470 1470 1471 1473 1474 1475 1477 1478 1480 1481 1483 1485 1487 1488
1504 1505 1506 1506 1506 1506 1505 1503 1502 1496 1495 1495 1494 1493 1492 1490 1488 1486 1484 1481 1478 1476 1473 1472 1470 1469 1468 1467 1465 1464 1463 1463 1463 1463 1463 1464 1465 1466 1467 1468 1470 1471 1472 1474 1476 1478 1480 1482 1484
1506 1506 1505 1505 1504 1504 1503 1499 1499 1491 1492 1492 1491 1490 1488 1487 1485 1482 1480 1477 1475 1472 1470 1468 1466 1465 1463 1462 1461 1460 1459 1458 1458 1457 1457 1458 1459 1460 1461 1462 1464 1465 1467 1468 1470 1472 1475 1476 1478
1507 1505 1502 1502 1502 1502 1502 1492 1490 1488 1489 1489 1488 1486 1485 1483 1481 1479 1477 1474 1471 1468 1466 1463 1461 1460 1459 1457 1456 1455 1454 1453 1452 1452 1452 1452 1453 1454 1455 1456 1458 1459 1461 1463 1464 1466 1469 1471 1473
1504 1500 1495 1498 1500 1501 1501 1484 1483 1486 1486 1485 1484 1482 1481 1479 1477 1475 1473 1470 1467 1465 1462 1459 1457 1455 1454 1452 1451 1450 1449 1448 1447 1446 1446 1446 1447 1448 1449 1450 1451 1453 1455 1456 1458 1460 1462 1464 1467
1498 1495 1493 1494 1498 1499 1497 1484 1480 1483 1483 1481 1480 1478 1477 1475 1473 1472 1469 1467 1464 1461 1458 1455 1453 1451 1449 1447 1445 1444 1443 1442 1441 1441 1440 1440 1441 1442 1442 1443 1445 1447 1448 1450 1452 1454 1456 1459 1461
1496 1494 1494 1492 1494 1497 1492 1481 1476 1478 1479 1476 1475 1474 1473 1471 1470 1468 1466 1463 1460 1457 1455 1452 1449 1447 1444 1442 1440 1438 1437 1436 1436 1435 1434 1433 1434 1435 1436 1437 1438 1440 1441 1443 1445 1448 1450 1453 1455
1502 1500 1496 1492 1495 1495 1485 1477 1471 1472 1472 1471 1470 1470 1469 1468 1466 1464 1462 1459 1456 1453 1450 1447 1445 1442 1439 1437 1434 1431 1430 1430 1429 1428 1427 1427 1428 1428 1430 1430 1431 1433 1435 1436 1439 1441 1444 1446 1449
1503 1500 1493 1491 1495 1494 1483 1474 1467 1467 1467 1467 1466 1466 1465 1464 1462 1461 1458 1455 1452 1449 1446 1442 1439 1436 1434 1432 1429 1426 1424 1423 1423 1422 1421 1420 1421 1422 1422 1423 1424 1426 1428 1430 1432 1434 1437 1439 1443
1499 1497 1493 1494 1492 1490 1488 1464 1459 1462 1464 1464 1463 1463 1462 1461 1459 1457 1455 1452 1449 1445 1441 1437 1434 1431 1428 1426 1423 1420 1419 1417 1416 1415 1414 1414 1415 1415 1416 1417 1418 1419 1421 1422 1424 1427 1430 1432 1436
1494 1496 1498 1497 1494 1483 1489 1468 1451 1457 1459 1459 1459 1459 1458 1458 1456 1454 1451 1448 1445 1441 1437 1432 1429 1425 1422 1420 1417 1415 1413 1411 1409 1409 1407 1407 1407 1408 1408 1409 1411 1412 1414 1414 1416 1419 1422 1425 1428
1495 1499 1498 1497 1495 1494 1486 1486 1452 1456 1454 1453 1455 1455 1455 1455 1453 1451 1448 1445 1441 1437 1432 1428 1425 1421 1417 1415 1412 1409 1407 1405 1403 1402 1400 1400 1400 1400 1401 1402 1403 1404 1406 1406 1409 1411 1414 1418 1421
1499 1498 1498 1498 1494 1487 1479 1479 1450 1447 1449 1450 1452 1453 1453 1452 1450 1448 1444 1441 1437 1433 1428 1424 1420 1416 1412 1409 1406 1403 1401 1399 1397 1395 1394 1393 1393 1393 1393 1394 1395 1397 1398 1399 1401 1404 1407 1410 1413
1497 1493 1483 1477 1476 1466 1478 1477 1454 1446 1450 1451 1451 1451 1450 1448 1446 1444 1440 1437 1433 1428 1424 1420 1416 1411 1408 1404 1400 1397 1396 1393 1390 1389 1387 1386 1386 1385 1385 1386 1388 1389 1390 1392 1394 1396 1399 1402 1405
1495 1492 1486 1476 1463 1457 1473 1465 1446 1448 1450 1450 1450 1449 1448 1446 1443 1440 1437 1434 1429 1425 1420 1416 1410 1406 1402 1398 1394 1392 1389 1386 1384 1382 1380 1379 1378 1377 1378 1379 1380 1381 1382 1384 1386 1389 1391 1394 1397
1493 1491 1494 1492 1493 1487 1459 1454 1448 1445 1445 1446 1447 1446 1444 1443 1440 1437 1434 1430 1426 1421 1417 1412 1407 1402 1397 1393 1389 1386 1382 1379 1377 1375 1374 1372 1371 1371 1371 1371 1372 1373 1374 1375 1378 1380 1383 1386 1390
1495 1494 1495 1491 1483 1464 1448 1447 1440 1439 1439 1441 1443 1442 1440 1439 1436 1433 1430 1426 1422 1417 1412 1407 1402 1397 1392 1388 1384 1380 1376 1373 1370 1368 1366 1365 1365 1364 1363 1363 1363 1364 1365 1367 1369 1372 1375 1378 1381
1496 1496 1491 1487 1485 1473 1453 1437 1436 1439 1438 1439 1440 1439 1438 1436 1433 1429 1426 1422 1418 1413 1408 1403 1397 1392 1387 1382 1378 1374 1370 1367 1363 1361 1359 1358 1357 1356 1355 1355 1355 1355 1356 1358 1360 1363 1366 1370 1374
1488 1485 1486 1483 1482 1482 1466 1444 1435 1438 1438 1439 1438 1437 1435 1432 1429 1425 1421 1417 1412 1408 1403 1398 1393 1387 1382 1378 1373 1368 1364 1360 1357 1354 1352 1352 1350 1349 1348 1348 1347 1348 1349 1351 1352 1355 1358 1362 1366